Regional Weather Roundup
Issued by NWS Newport/Morehead, NC

Current Version | Previous Version | Text Only | Print | Product List | Glossary On
Versions: 1 2 3 4 5 6 7 8 9 10 11 12 13 14 15 16 17 18 19 20 21 22 23 24 25 26 27 28 29 30 31 32 33 34 35 36 37 38 39 40 41 42 43 44 45 46 47 48 49 50
000
ASUS42 KMHX 011322
RWRMHX
WEATHER ROUNDUP FOR EASTERN NORTH CAROLINA
NATIONAL WEATHER SERVICE NEWPORT/MOREHEAD CITY NC
900 AM EDT FRI AUG 01 2014

NOTE: "FAIR" INDICATES FEW OR NO CLOUDS BELOW 12,000 FEET
WITH NO SIGNIFICANT WEATHER AND/OR OBSTRUCTIONS TO VISIBILITY

NCZ015>017-031-032-045>047-102-103-011400-
NORTH COAST

CITY           SKY/WX    TMP DP  RH WIND       PRES   REMARKS
EDENTON        CLOUDY    73  71  93 NE5       30.14F
ELIZABETH CITY CLOUDY    75  70  84 E6        30.15R
KITTY HAWK     CLOUDY    76  69  78 E6        30.13R
MANTEO         NOT AVBL

$$

NCZ045>047-081-094-103-104-011400-
CENTRAL COAST

CITY           SKY/WX    TMP DP  RH WIND       PRES   REMARKS
FRISCO         CLOUDY    79  76  90 E6        30.11R
SWANQUARTER      N/A     75 N/A N/A NE3       30.09S

$$

NCZ095-097-098-100-101-011400-
SOUTHERN COAST

CITY           SKY/WX    TMP DP  RH WIND       PRES   REMARKS
BEAUFORT       LGT RAIN  76  73  91 NE3       30.08S
CEDAR ISLAND     N/A     79 N/A N/A E13G18    30.12F
JACKSONVILLE   LGT RAIN  74  73  97 E12       30.08S
NEWPORT        NOT AVBL
PINEY ISLAND   LGT RAIN  80  80 100 E10       30.08F FOG
WILMINGTON     LGT RAIN  75  73  93 NE8       30.05F


$$

NCZ011>013-027>030-043-044-078>080-089-090>093-098-011400-
COASTAL PLAIN

CITY           SKY/WX    TMP DP  RH WIND       PRES   REMARKS
AHOSKIE        CLOUDY    71  67  87 CALM      30.16R
CLINTON        LGT RAIN  71  71 100 E3        30.09F
ELIZABETHTOWN  LGT RAIN  72  72 100 CALM      30.07S
GOLDSBORO      LGT RAIN  71  71  98 NE8       30.09F
GREENVILLE     LGT RAIN  72  70  94 NE3       30.15R
HAVELOCK       HVY RAIN  74  71  91 S8        30.09S FOG
KENANSVILLE    RAIN      71  69  95 E5        30.11S VSB 3/4
KINSTON        RAIN      72  70  94 NE6       30.11S
NEW BERN       HVY RAIN  73  72  94 VRB5      30.09F VSB 1/4
RICHLANDS      CLOUDY    72  70  94 E8        30.09S
ROANOKE RAPIDS NOT AVBL
ROCKY MOUNT    CLOUDY    72  68  87 N7        30.14R
WASHINGTON     CLOUDY    70  69  95 N6        30.12F
WHITEVILLE     CLOUDY    73  71  95 NE7       30.05S

$$

AMZ130-135-150-152-154-156-158-170-250-252-270-ANZ085-086-088-633-658-670-011400-
MARINE OBSERVATIONS

STATION/POSITION TIME  TEMP    WIND        PRES    WAVE   SWELL
                       AIR SEA DIR/SP/G            HT/PER HT/PER
                 (UTC) (F)     (DEG/KT/KT) (MB)    (FT/S) (FT/S)
CHESAPEAKE LIGHT NOT AVBL
BUOY 44014       1300   77 78   70/ 14/ 16 1020.6    2/ 6   2/ 6
DUCK             1300   77 76   80/ 11/ 12 1020.1
2E DUCK          1300                        N/A     3/ 7
OREGON INLET     1300   77 79   50/ 11/ 14 1020.3
BUOY 44095       1300      78                N/A     3/ 5
20E OREGON INLET NOT AVBL
HATTERAS CG      1300   79 80   90/  5/  7 1019.9
DIAMOND BUOY     1300          VRB 14/ 17  1019.0    4/ 6   2/ 8
CAPE LOOKOUT     1300   80     110/ 12/ 12 1018.3
BEAUFORT LAB     1300   75 81   50/  5/  7 1017.9
30 SE NEW RIVER  1300   76 81  160/ 19/ 31 1018.2    4/ 7   2/13
5 SE WRIGHTSVILL 1300   75 81  100/ 14/ 19   N/A
BUOY 41002       1208   81 81  160/ 14/ 16 1019.0    4/ 7   2/ 7
BUOY 41004       1300   79 83  150/  8/ 10 1015.5    4/ 5   3/ 5

$$



USA.gov is the U.S. government's official web portal to all federal, state and local government web resources and services.